Farmington, MO

11:28 AM CST on December 12, 2019 (GMT -0600)
Farmington Regional

Weather History for KFAM - November, 2019

Change the Weather History Date:

Thursday, November 14, 2019

  Actual Average Record
Temperature  
Mean Temperature 34 °F -  
Max Temperature 44 °F 53 °F 75 °F (2011)
Min Temperature 21 °F 36 °F 14 °F (2014)
Degree Days  
Heating Degree Days 32    
Moisture  
Dew Point 23 °F    
Average Humidity 69    
Maximum Humidity 92    
Minimum Humidity 53    
Precipitation  
Precipitation 0.00 in - - ()
Sea Level Pressure  
Sea Level Pressure 30.33 in    
Wind  
Wind Speed 5 mph (NW)    
Max Wind Speed 9 mph    
Max Gust Speed -    
Visibility 10 miles    
Events      
Averages and records for this station are not official NWS values.
T = Trace of Precipitation, MM = Missing Value Source: NWS Daily Summary

Daily Weather History Graph

Daily Weather History Graph

Search for Another Location

Airport or City:

Astronomy

Nov. 14, 2019 Rise Set
Actual Time 6:40 AM CST 4:51 PM CST
Civil Twilight 6:12 AM CST 5:19 PM CST
Nautical Twilight 5:41 AM CST 5:50 PM CST
Astronomical Twilight 5:10 AM CST 6:21 PM CST
Moon 6:38 PM CST (11/14) 8:35 AM CST (11/14)
Length of Visible Light 11h 06m
Length of Day
10h 10m
Waning Gibbous, 95% of the Moon is Illuminated
Nov 14
Waning Gibbous
Nov 19
Last Quarter
Nov 26
New
Dec 4
First Quarter
Dec 11
Full

Hourly Weather History & Observations

Time (CST) Temp. Windchill Dew Point Humidity Pressure Visibility Wind Dir Wind Speed Gust Speed Precip Events Conditions
12:56 AM 30.9 °F 22.8 °F 19.9 °F 64% 30.20 in 10.0 mi SSW 9.2 mph - N/A   Overcast
1:56 AM 30.0 °F 24.1 °F 19.0 °F 64% 30.22 in 10.0 mi SSW 5.8 mph - N/A   Mostly Cloudy
2:56 AM 27.0 °F 21.6 °F 19.0 °F 72% 30.22 in 10.0 mi South 4.6 mph - N/A   Clear
3:56 AM 27.0 °F 21.6 °F 19.0 °F 72% 30.22 in 10.0 mi South 4.6 mph - N/A   Clear
4:56 AM 24.1 °F - 18.0 °F 77% 30.23 in 10.0 mi Calm Calm - N/A   Clear
5:56 AM 23.0 °F - 19.0 °F 85% 30.25 in 10.0 mi Calm Calm - N/A   Clear
6:56 AM 25.0 °F - 19.9 °F 81% 30.27 in 10.0 mi Calm Calm - N/A   Overcast
7:56 AM 28.9 °F - 23.0 °F 78% 30.30 in 10.0 mi Calm Calm - N/A   Overcast
8:56 AM 36.0 °F 29.0 °F 21.0 °F 55% 30.31 in 10.0 mi NW 9.2 mph - N/A   Overcast
9:56 AM 37.0 °F 30.4 °F 21.9 °F 54% 30.33 in 10.0 mi NW 9.2 mph - N/A   Overcast
10:56 AM 37.9 °F 32.1 °F 21.9 °F 53% 30.35 in 10.0 mi NNW 8.1 mph - N/A   Overcast
11:56 AM 39.0 °F 34.0 °F 23.0 °F 53% 30.34 in 10.0 mi NNW 6.9 mph - N/A   Overcast
12:56 PM 41.0 °F 37.1 °F 25.0 °F 53% 30.34 in 10.0 mi Variable 5.8 mph - N/A   Overcast
1:56 PM 43.0 °F 38.2 °F 27.0 °F 53% 30.32 in 10.0 mi WNW 8.1 mph - N/A   Mostly Cloudy
2:56 PM 44.1 °F 39.0 °F 28.0 °F 53% 30.33 in 10.0 mi North 9.2 mph - N/A   Clear
3:56 PM 44.1 °F 41.5 °F 28.0 °F 53% 30.34 in 10.0 mi NNW 4.6 mph - N/A   Clear
4:56 PM 41.0 °F 38.0 °F 27.0 °F 57% 30.36 in 10.0 mi North 4.6 mph - N/A   Clear
5:56 PM 37.9 °F 34.4 °F 26.1 °F 62% 30.39 in 10.0 mi North 4.6 mph - N/A   Clear
6:56 PM 32.0 °F - 25.0 °F 75% 30.40 in 10.0 mi Calm Calm - N/A   Clear
7:56 PM 30.0 °F - 27.0 °F 88% 30.42 in 10.0 mi Calm Calm - N/A   Clear
8:56 PM 27.0 °F - 25.0 °F 92% 30.44 in 10.0 mi Calm Calm - N/A   Clear
9:56 PM 25.0 °F - 23.0 °F 92% 30.44 in 10.0 mi Calm Calm - N/A   Clear
10:56 PM 24.1 °F - 21.0 °F 88% 30.45 in 10.0 mi Calm Calm - N/A   Clear
11:56 PM 21.9 °F - 19.0 °F 89% 30.45 in 10.0 mi Calm Calm - N/A   Clear